,,Stat6,,Stat2,,Stat8,,Stat9,,Stat10,,Wind1,,Wind1,
time,status,PA1M_AVG,status,PR1M_SUM,status,RH1M_AVG,status,SR1M_AVG,status,TA1M_AVG,status,W1dAve1m,status,W1sAve1m,
2008-09-29, 07:00:03,VALID,917.645,VALID,0,VALID,98.3014,VALID,58.5839,VALID,18.0195,VALID,141,VALID,0.882612,
2008-09-29, 07:01:00,VALID,917.65,VALID,0,VALID,98.3179,VALID,53.116,VALID,18.039,VALID,135,VALID,0.12779,
2008-09-29, 07:02:00,VALID,917.646,VALID,0,VALID,98.3141,VALID,48.0897,VALID,18.0288,VALID,129,VALID,0.136039,
2008-09-29, 07:03:00,VALID,917.641,VALID,0,VALID,98.3077,VALID,48.1067,VALID,18.0322,VALID,139,VALID,0.339208,
2008-09-29, 07:04:00,VALID,917.628,VALID,0,VALID,98.2861,VALID,49.1086,VALID,18.0214,VALID,140,VALID,0.00177557,
2008-09-29, 07:05:00,VALID,917.629,VALID,0,VALID,98.2658,VALID,63.2536,VALID,18.0149,VALID,139,VALID,0,
2008-09-29, 07:06:00,VALID,917.633,VALID,0,VALID,98.3243,VALID,79.708,VALID,18.0114,VALID,136,VALID,0,
2008-09-29, 07:07:00,VALID,917.669,VALID,0,VALID,98.4171,VALID,85.6683,VALID,18.0313,VALID,135,VALID,0,
2008-09-29, 07:08:00,VALID,917.702,VALID,0,VALID,98.4146,VALID,89.6758,VALID,18.0573,VALID,134,VALID,0,
2008-09-29, 07:09:00,VALID,917.732,VALID,0,VALID,98.4667,VALID,93.2757,VALID,18.0923,VALID,133,VALID,0.307617,
2008-09-29, 07:10:00,VALID,917.749,VALID,0,VALID,98.4057,VALID,111.802,VALID,18.1346,VALID,134,VALID,0.962391,
2008-09-29, 07:11:00,VALID,917.776,VALID,0,VALID,98.3637,VALID,128.409,VALID,18.18,VALID,135,VALID,0.87779,
2008-09-29, 07:12:00,VALID,917.802,VALID,0,VALID,98.3141,VALID,147.495,VALID,18.2317,VALID,119,VALID,0.834872,
2008-09-29, 07:13:00,VALID,917.823,VALID,0,VALID,98.3344,VALID,165.122,VALID,18.3292,VALID,115,VALID,0.388849,
2008-09-29, 07:14:00,VALID,917.849,VALID,0,VALID,98.192,VALID,183.902,VALID,18.4168,VALID,115,VALID,0.583212,
2008-09-29, 07:15:00,VALID,917.882,VALID,0,VALID,98.0509,VALID,210.545,VALID,18.5115,VALID,125,VALID,0.810683,
2008-09-29, 07:16:00,VALID,917.907,VALID,0,VALID,97.8856,VALID,226.49,VALID,18.6051,VALID,121,VALID,0.346354,
2008-09-29, 07:17:00,VALID,917.935,VALID,0,VALID,97.7432,VALID,243.267,VALID,18.7321,VALID,120,VALID,0.00234375,
2008-09-29, 07:18:00,VALID,917.974,VALID,0,VALID,97.7279,VALID,257.005,VALID,18.9008,VALID,120,VALID,0.214931,
2008-09-29, 07:19:00,VALID,917.996,VALID,0,VALID,97.1506,VALID,271.829,VALID,19.0273,VALID,126,VALID,0.489644,
2008-09-29, 07:20:00,VALID,918.006,VALID,0,VALID,96.7742,VALID,280.727,VALID,19.1475,VALID,131,VALID,0.281622,
2008-09-29, 07:21:00,VALID,918.029,VALID,0,VALID,95.7607,VALID,286.212,VALID,19.2022,VALID,131,VALID,0.892361,
2008-09-29, 07:22:00,VALID,918.022,VALID,0,VALID,95.7785,VALID,292.783,VALID,19.3122,VALID,141,VALID,0.683594,
2008-09-29, 07:23:00,VALID,918.053,VALID,0,VALID,95.5217,VALID,295.093,VALID,19.4225,VALID,142,VALID,0.815104,
2008-09-29, 07:24:00,VALID,918.058,VALID,0,VALID,95.2546,VALID,290.661,VALID,19.5241,VALID,141,VALID,0,
2008-09-29, 07:25:00,VALID,918.078,VALID,0,VALID,95.4034,VALID,292.257,VALID,19.6077,VALID,153,VALID,0.362351,
2008-09-29, 07:26:00,VALID,918.118,VALID,0,VALID,94.4319,VALID,293.955,VALID,19.7016,VALID,154,VALID,0.330602,
2008-09-29, 07:27:00,VALID,918.148,VALID,0,VALID,93.866,VALID,300.663,VALID,19.7475,VALID,150,VALID,0.96532,
2008-09-29, 07:28:00,VALID,918.194,VALID,0,VALID,93.3307,VALID,312.481,VALID,19.7926,VALID,147,VALID,0.593945,
2008-09-29, 07:29:00,VALID,918.226,VALID,0,VALID,93.5545,VALID,325.607,VALID,19.9002,VALID,145,VALID,0.701029,
2008-09-29, 07:30:00,VALID,918.245,VALID,0,VALID,92.8755,VALID,330.124,VALID,20.0076,VALID,149,VALID,1.08993,
2008-09-29, 07:31:00,VALID,918.264,VALID,0,VALID,92.8564,VALID,352.25,VALID,20.0719,VALID,151,VALID,0.827762,
2008-09-29, 07:32:00,VALID,918.272,VALID,0,VALID,93.1094,VALID,361.131,VALID,20.1917,VALID,146,VALID,0.911701,
2008-09-29, 07:33:00,VALID,918.299,VALID,0,VALID,92.8233,VALID,336.068,VALID,20.2899,VALID,153,VALID,0.979106,
2008-09-29, 07:34:00,VALID,918.285,VALID,0,VALID,92.2384,VALID,293.802,VALID,20.3545,VALID,156,VALID,0.727325,
2008-09-29, 07:35:00,VALID,918.274,VALID,0,VALID,92.2702,VALID,298.251,VALID,20.394,VALID,147,VALID,0.835582,
2008-09-29, 07:36:00,VALID,918.254,VALID,0,VALID,92.2435,VALID,302.242,VALID,20.4456,VALID,148,VALID,1.04074,
2008-09-29, 07:37:00,VALID,918.249,VALID,0,VALID,92.096,VALID,298.251,VALID,20.4813,VALID,142,VALID,1.07496,
2008-09-29, 07:38:00,VALID,918.24,VALID,0,VALID,91.642,VALID,311.259,VALID,20.4356,VALID,133,VALID,1.50692,
2008-09-29, 07:39:00,VALID,918.249,VALID,0,VALID,91.6636,VALID,285.363,VALID,20.4005,VALID,138,VALID,1.35701,
2008-09-29, 07:40:00,VALID,918.261,VALID,0,VALID,91.4195,VALID,244.235,VALID,20.397,VALID,132,VALID,1.27474,
2008-09-29, 07:41:00,VALID,918.287,VALID,0,VALID,92.0871,VALID,203.413,VALID,20.4427,VALID,150,VALID,0.95484,
2008-09-29, 07:42:00,VALID,918.307,VALID,0,VALID,92.1837,VALID,311.513,VALID,20.5438,VALID,153,VALID,0.918786,
2008-09-29, 07:43:00,VALID,918.336,VALID,0,VALID,91.7412,VALID,337.902,VALID,20.6374,VALID,149,VALID,0.922602,
2008-09-29, 07:44:00,VALID,918.342,VALID,0,VALID,91.1473,VALID,355.052,VALID,20.732,VALID,162,VALID,0.913872,
2008-09-29, 07:45:00,VALID,918.361,VALID,0,VALID,90.4683,VALID,367.635,VALID,20.7804,VALID,156,VALID,1.08168,
2008-09-29, 07:46:00,VALID,918.354,VALID,0,VALID,90.1746,VALID,367.177,VALID,20.8104,VALID,161,VALID,1.3995,
2008-09-29, 07:47:00,VALID,918.354,VALID,0,VALID,89.4205,VALID,385.703,VALID,20.8004,VALID,172,VALID,1.366,
2008-09-29, 07:48:00,VALID,918.328,VALID,0,VALID,89.4993,VALID,390.389,VALID,20.8578,VALID,164,VALID,1.02214,
2008-09-29, 07:49:00,VALID,918.307,VALID,0,VALID,89.6964,VALID,381.169,VALID,20.9138,VALID,157,VALID,0.706214,
2008-09-29, 07:50:00,VALID,918.272,VALID,0,VALID,89.6252,VALID,388.81,VALID,21.0831,VALID,175,VALID,0.930398,
2008-09-29, 07:51:00,VALID,918.248,VALID,0,VALID,89.2539,VALID,390.287,VALID,21.223,VALID,162,VALID,0.780878,
2008-09-29, 07:52:00,VALID,918.238,VALID,0,VALID,87.9836,VALID,434.522,VALID,21.3331,VALID,164,VALID,0.609561,
2008-09-29, 07:53:00,VALID,918.231,VALID,0,VALID,87.0693,VALID,435.83,VALID,21.4502,VALID,152,VALID,1.01113,
2008-09-29, 07:54:00,VALID,918.245,VALID,0,VALID,86.9193,VALID,439.702,VALID,21.5084,VALID,135,VALID,0.762718,
2008-09-29, 07:55:00,VALID,918.247,VALID,0,VALID,85.3717,VALID,442.945,VALID,21.6742,VALID,141,VALID,0.84013,
2008-09-29, 07:56:00,VALID,918.263,VALID,0,VALID,85.1822,VALID,430.294,VALID,21.7616,VALID,183,VALID,1.06002,
2008-09-29, 07:57:00,VALID,918.274,VALID,0,VALID,84.8148,VALID,438.156,VALID,21.9015,VALID,174,VALID,0.781432,
2008-09-29, 07:58:00,VALID,918.273,VALID,0,VALID,84.0302,VALID,439.141,VALID,22.0149,VALID,179,VALID,0.791016,
2008-09-29, 07:59:00,VALID,918.289,VALID,0,VALID,82.4432,VALID,425.217,VALID,22.0784,VALID,174,VALID,1.28693,
2008-09-29, 08:00:00,VALID,918.285,VALID,0,VALID,82.1622,VALID,441.586,VALID,22.082,VALID,173,VALID,1.52744,
2008-09-29, 08:01:00,VALID,918.298,VALID,0,VALID,81.4895,VALID,449.958,VALID,22.033,VALID,175,VALID,1.29705,
2008-09-29, 08:02:00,VALID,918.304,VALID,0,VALID,82.0236,VALID,428.206,VALID,22.0595,VALID,159,VALID,0.97237,
2008-09-29, 08:03:00,VALID,918.312,VALID,0,VALID,80.8143,VALID,419.223,VALID,22.1147,VALID,179,VALID,0.505149,
2008-09-29, 08:04:00,VALID,918.317,VALID,0,VALID,81.6828,VALID,403.329,VALID,22.2903,VALID,188,VALID,1.16566,
2008-09-29, 08:05:00,VALID,918.324,VALID,0,VALID,81.96,VALID,401.104,VALID,22.4237,VALID,166,VALID,0.794695,
2008-09-29, 08:06:00,VALID,918.317,VALID,0,VALID,80.4404,VALID,414.213,VALID,22.4722,VALID,181,VALID,1.17264,
2008-09-29, 08:07:00,VALID,918.327,VALID,0,VALID,80.8041,VALID,443.471,VALID,22.5495,VALID,187,VALID,0.913867,
2008-09-29, 08:08:00,VALID,918.334,VALID,0,VALID,80.7609,VALID,407.778,VALID,22.6797,VALID,182,VALID,0.582508,
2008-09-29, 08:09:00,VALID,918.349,VALID,0,VALID,81.2784,VALID,353.779,VALID,22.6992,VALID,173,VALID,0.588715,
2008-09-29, 08:10:00,VALID,918.363,VALID,0,VALID,81.7464,VALID,386.195,VALID,22.7615,VALID,259,VALID,0.12551,
2008-09-29, 08:11:00,VALID,918.378,VALID,0,VALID,81.7502,VALID,385.618,VALID,22.9047,VALID,169,VALID,0.524554,
2008-09-29, 08:12:00,VALID,918.408,VALID,0,VALID,80.4748,VALID,387.197,VALID,22.9528,VALID,189,VALID,1.06345,
2008-09-29, 08:13:00,VALID,918.434,VALID,0,VALID,80.56,VALID,402.649,VALID,22.9788,VALID,162,VALID,0.666243,
2008-09-29, 08:14:00,VALID,918.459,VALID,0,VALID,80.0526,VALID,395.738,VALID,22.9623,VALID,164,VALID,0.776105,
2008-09-29, 08:15:00,VALID,918.477,VALID,0,VALID,80.9949,VALID,366.803,VALID,22.9469,VALID,165,VALID,0.145647,
2008-09-29, 08:16:00,VALID,918.512,VALID,0,VALID,81.6561,VALID,356.411,VALID,23.1123,VALID,165,VALID,0,
2008-09-29, 08:17:00,VALID,918.52,VALID,0,VALID,81.6523,VALID,352.726,VALID,23.288,VALID,165,VALID,0.0506037,
2008-09-29, 08:18:00,VALID,918.532,VALID,0,VALID,80.4061,VALID,352.42,VALID,23.3721,VALID,166,VALID,0.87168,
2008-09-29, 08:19:00,VALID,918.543,VALID,0,VALID,78.9819,VALID,361.369,VALID,23.2883,VALID,168,VALID,0.823361,
2008-09-29, 08:20:00,VALID,918.539,VALID,0,VALID,79.6978,VALID,356.631,VALID,23.2195,VALID,168,VALID,0.843023,
2008-09-29, 08:21:00,VALID,918.549,VALID,0,VALID,79.5846,VALID,339.549,VALID,23.1775,VALID,169,VALID,0.619444,
2008-09-29, 08:22:00,VALID,918.53,VALID,0,VALID,78.7568,VALID,302.513,VALID,23.2295,VALID,172,VALID,0.030878,
2008-09-29, 08:23:00,VALID,918.518,VALID,0,VALID,79.2998,VALID,283.155,VALID,23.3438,VALID,139,VALID,0.421875,
2008-09-29, 08:24:00,VALID,918.514,VALID,0,VALID,78.8484,VALID,280.421,VALID,23.233,VALID,141,VALID,0.62609,
2008-09-29, 08:25:00,VALID,918.538,VALID,0,VALID,78.3436,VALID,277.45,VALID,23.0544,VALID,142,VALID,0.549851,
2008-09-29, 08:26:00,VALID,918.558,VALID,0,VALID,79.6381,VALID,288.572,VALID,22.9664,VALID,142,VALID,0.364329,
2008-09-29, 08:27:00,VALID,918.591,VALID,0,VALID,79.0976,VALID,301.546,VALID,22.892,VALID,138,VALID,0.621354,
2008-09-29, 08:28:00,VALID,918.619,VALID,0,VALID,77.2131,VALID,303.532,VALID,22.7718,VALID,138,VALID,0.270774,
2008-09-29, 08:29:00,VALID,918.642,VALID,0,VALID,78.6131,VALID,305.298,VALID,22.8303,VALID,137,VALID,0,
2008-09-29, 08:30:00,VALID,918.663,VALID,0,VALID,79.2197,VALID,314.026,VALID,22.9794,VALID,74,VALID,0,
2008-09-29, 08:31:00,VALID,918.695,VALID,0,VALID,77.8235,VALID,326.389,VALID,23.0316,VALID,72,VALID,0,
2008-09-29, 08:32:00,VALID,918.708,VALID,0,VALID,77.9277,VALID,346.052,VALID,22.9927,VALID,72,VALID,0,
2008-09-29, 08:33:00,VALID,918.718,VALID,0,VALID,78.4567,VALID,366.922,VALID,23.1161,VALID,72,VALID,0,
2008-09-29, 08:34:00,VALID,918.725,VALID,0,VALID,77.4204,VALID,368.416,VALID,23.3213,VALID,72,VALID,0,
2008-09-29, 08:35:00,VALID,918.718,VALID,0,VALID,76.3319,VALID,369.452,VALID,23.5387,VALID,72,VALID,0,
2008-09-29, 08:36:00,VALID,918.719,VALID,0,VALID,75.2307,VALID,361.946,VALID,23.7375,VALID,66,VALID,0.143787,
2008-09-29, 08:37:00,VALID,918.707,VALID,0,VALID,74.8937,VALID,377.484,VALID,23.8769,VALID,55,VALID,0.273438,
2008-09-29, 08:38:00,VALID,918.695,VALID,0,VALID,74.8403,VALID,392.902,VALID,23.9421,VALID,34,VALID,0.793826,
2008-09-29, 08:39:00,VALID,918.693,VALID,0,VALID,75.0806,VALID,390.933,VALID,23.9096,VALID,21,VALID,0.455078,
2008-09-29, 08:40:00,VALID,918.701,VALID,0,VALID,75.0628,VALID,393.921,VALID,23.925,VALID,20,VALID,0.178757,
2008-09-29, 08:41:00,VALID,918.707,VALID,0,VALID,76.1233,VALID,384.174,VALID,24.0331,VALID,10,VALID,0.269701,
2008-09-29, 08:42:00,VALID,918.729,VALID,0,VALID,77.737,VALID,379.318,VALID,24.1182,VALID,329,VALID,0.861049,
2008-09-29, 08:43:00,VALID,918.755,VALID,0,VALID,77.7866,VALID,367.38,VALID,24.0396,VALID,333,VALID,0.80202,
2008-09-29, 08:44:00,VALID,918.772,VALID,0,VALID,78.1325,VALID,355.12,VALID,23.933,VALID,354,VALID,0.565557,
2008-09-29, 08:45:00,VALID,918.8,VALID,0,VALID,78.5979,VALID,343.013,VALID,23.8716,VALID,329,VALID,0.640439,
2008-09-29, 08:46:00,VALID,918.807,VALID,0,VALID,80.3412,VALID,339.294,VALID,23.7416,VALID,343,VALID,0.0324929,
2008-09-29, 08:47:00,VALID,918.81,VALID,0,VALID,80.9313,VALID,340.398,VALID,23.7569,VALID,273,VALID,0.105741,
2008-09-29, 08:48:00,VALID,918.811,VALID,0,VALID,80.7278,VALID,342.351,VALID,23.7183,VALID,277,VALID,0.732195,
2008-09-29, 08:49:00,VALID,918.794,VALID,0,VALID,81.7159,VALID,346.375,VALID,23.637,VALID,294,VALID,0.245164,
2008-09-29, 08:50:00,VALID,918.805,VALID,0,VALID,81.6574,VALID,356.343,VALID,23.5889,VALID,11,VALID,0.422049,
2008-09-29, 08:51:00,VALID,918.821,VALID,0,VALID,82.1698,VALID,363.628,VALID,23.5499,VALID,16,VALID,1.0119,
2008-09-29, 08:52:00,VALID,918.84,VALID,0,VALID,82.3339,VALID,366.378,VALID,23.5502,VALID,30,VALID,1.0373,
2008-09-29, 08:53:00,VALID,918.883,VALID,0,VALID,81.6752,VALID,370.352,VALID,23.5889,VALID,32,VALID,0.456926,
2008-09-29, 08:54:00,VALID,918.906,VALID,0,VALID,78.4796,VALID,383.223,VALID,23.6864,VALID,34,VALID,1.05766,
2008-09-29, 08:55:00,VALID,918.926,VALID,0,VALID,76.5493,VALID,390.644,VALID,23.5921,VALID,12,VALID,1.12358,
2008-09-29, 08:56:00,VALID,918.935,VALID,0,VALID,75.2828,VALID,399.831,VALID,23.5948,VALID,21,VALID,1.00743,
2008-09-29, 08:57:00,VALID,918.929,VALID,0,VALID,76.8532,VALID,403.549,VALID,23.4684,VALID,45,VALID,1.21113,
2008-09-29, 08:58:00,VALID,918.935,VALID,0,VALID,76.0241,VALID,409.798,VALID,23.3258,VALID,18,VALID,0.976944,
2008-09-29, 08:59:00,VALID,918.937,VALID,0,VALID,76.3764,VALID,412.753,VALID,23.3387,VALID,2,VALID,0.613839,
2008-09-29, 09:00:00,VALID,918.947,VALID,0,VALID,77.6594,VALID,417.644,VALID,23.4846,VALID,36,VALID,0.39826,
2008-09-29, 09:01:00,VALID,918.931,VALID,0,VALID,78.8217,VALID,422.602,VALID,23.6282,VALID,329,VALID,0.369673,
2008-09-29, 09:02:00,VALID,918.955,VALID,0,VALID,78.9018,VALID,425.574,VALID,23.7449,VALID,333,VALID,0.27983,
2008-09-29, 09:03:00,VALID,918.963,VALID,0,VALID,79.1434,VALID,421.821,VALID,23.8751,VALID,10,VALID,0.855639,
2008-09-29, 09:04:00,VALID,918.989,VALID,0,VALID,76.117,VALID,424.47,VALID,23.883,VALID,343,VALID,1.1224,
2008-09-29, 09:05:00,VALID,918.985,VALID,0,VALID,75.3108,VALID,432.247,VALID,23.9185,VALID,333,VALID,0.177871,
2008-09-29, 09:06:00,VALID,918.975,VALID,0,VALID,75.1353,VALID,432.519,VALID,23.9835,VALID,35,VALID,1.56303,
2008-09-29, 09:07:00,VALID,918.995,VALID,0,VALID,75.0018,VALID,424.3,VALID,23.8246,VALID,20,VALID,1.27604,
2008-09-29, 09:08:00,VALID,919.007,VALID,0,VALID,74.6534,VALID,422.568,VALID,23.8181,VALID,21,VALID,1.41853,
2008-09-29, 09:09:00,VALID,919,VALID,0,VALID,73.0588,VALID,421.94,VALID,23.8243,VALID,8,VALID,1.65904,
2008-09-29, 09:10:00,VALID,918.983,VALID,0,VALID,71.6765,VALID,427.068,VALID,23.7729,VALID,15,VALID,1.70859,
2008-09-29, 09:11:00,VALID,918.97,VALID,0,VALID,73.0308,VALID,435.983,VALID,23.8405,VALID,22,VALID,1.1967,
2008-09-29, 09:12:00,VALID,918.953,VALID,0,VALID,74.1485,VALID,448.209,VALID,23.9353,VALID,26,VALID,1.59466,
2008-09-29, 09:13:00,VALID,918.928,VALID,0,VALID,72.2844,VALID,458.635,VALID,23.7658,VALID,45,VALID,2.20331,
2008-09-29, 09:14:00,VALID,918.922,VALID,0,VALID,72.4268,VALID,461.454,VALID,23.6332,VALID,24,VALID,2.38411,
2008-09-29, 09:15:00,VALID,918.942,VALID,0,VALID,72.5832,VALID,459.773,VALID,23.6175,VALID,23,VALID,2.30078,
2008-09-29, 09:16:00,VALID,918.952,VALID,0,VALID,73.734,VALID,456.564,VALID,23.4867,VALID,31,VALID,2.06454,
2008-09-29, 09:17:00,VALID,918.966,VALID,0,VALID,74.9992,VALID,463.407,VALID,23.4572,VALID,23,VALID,1.23917,
2008-09-29, 09:18:00,VALID,918.989,VALID,0,VALID,76.735,VALID,468.501,VALID,23.5721,VALID,24,VALID,1.163,
2008-09-29, 09:19:00,VALID,918.995,VALID,0,VALID,76.7121,VALID,472.848,VALID,23.7127,VALID,10,VALID,1.18899,
2008-09-29, 09:20:00,VALID,919.003,VALID,0,VALID,76.7655,VALID,474.105,VALID,23.8335,VALID,20,VALID,1.375,
2008-09-29, 09:21:00,VALID,918.99,VALID,0,VALID,76.4565,VALID,476.567,VALID,23.8633,VALID,54,VALID,1.6179,
2008-09-29, 09:22:00,VALID,918.988,VALID,0,VALID,77.1661,VALID,476.261,VALID,23.8069,VALID,36,VALID,1.7401,
2008-09-29, 09:23:00,VALID,918.989,VALID,0,VALID,75.2815,VALID,475.701,VALID,23.905,VALID,31,VALID,1.42676,
2008-09-29, 09:24:00,VALID,918.956,VALID,0,VALID,73.2177,VALID,472.661,VALID,23.8917,VALID,27,VALID,1.86166,
2008-09-29, 09:25:00,VALID,918.945,VALID,0,VALID,74.0417,VALID,469.86,VALID,23.8849,VALID,38,VALID,1.84502,
2008-09-29, 09:26:00,VALID,918.955,VALID,0,VALID,74.1803,VALID,473.035,VALID,23.645,VALID,54,VALID,1.42051,
2008-09-29, 09:27:00,VALID,918.94,VALID,0,VALID,75.4087,VALID,471.592,VALID,23.6385,VALID,45,VALID,1.84437,
2008-09-29, 09:28:00,VALID,918.926,VALID,0,VALID,72.807,VALID,470.199,VALID,23.5727,VALID,27,VALID,2.64081,
2008-09-29, 09:29:00,VALID,918.935,VALID,0,VALID,72.119,VALID,465.835,VALID,23.5868,VALID,19,VALID,2.10382,
2008-09-29, 09:30:00,VALID,918.939,VALID,0,VALID,71.7846,VALID,465.496,VALID,23.5995,VALID,18,VALID,1.77813,
2008-09-29, 09:31:00,VALID,918.913,VALID,0,VALID,71.4883,VALID,467.414,VALID,23.6713,VALID,17,VALID,1.69265,
2008-09-29, 09:32:00,VALID,918.879,VALID,0,VALID,72.7447,VALID,465.207,VALID,23.7461,VALID,13,VALID,1.72359,
2008-09-29, 09:33:00,VALID,918.87,VALID,0,VALID,71.9766,VALID,469.18,VALID,23.7555,VALID,34,VALID,1.6755,
2008-09-29, 09:34:00,VALID,918.839,VALID,0,VALID,73.7518,VALID,474.937,VALID,23.8001,VALID,40,VALID,0.971354,
2008-09-29, 09:35:00,VALID,918.833,VALID,0,VALID,73.3436,VALID,488.08,VALID,23.8639,VALID,356,VALID,1.89408,
2008-09-29, 09:36:00,VALID,918.821,VALID,0,VALID,72.2666,VALID,500.052,VALID,23.8609,VALID,359,VALID,0.97202,
2008-09-29, 09:37:00,VALID,918.794,VALID,0,VALID,74.1587,VALID,501.121,VALID,23.884,VALID,18,VALID,1.43099,
2008-09-29, 09:38:00,VALID,918.773,VALID,0,VALID,74.7373,VALID,501.495,VALID,23.9096,VALID,9,VALID,1.61934,
2008-09-29, 09:39:00,VALID,918.752,VALID,0,VALID,74.4359,VALID,506.555,VALID,23.9844,VALID,3,VALID,1.46799,
2008-09-29, 09:40:00,VALID,918.744,VALID,0,VALID,74.3037,VALID,499.033,VALID,23.9811,VALID,29,VALID,1.40225,
2008-09-29, 09:41:00,VALID,918.72,VALID,0,VALID,74.7653,VALID,496.621,VALID,23.9938,VALID,26,VALID,1.7153,
2008-09-29, 09:42:00,VALID,918.7,VALID,0,VALID,73.5661,VALID,493.786,VALID,24.0234,VALID,352,VALID,1.33487,
2008-09-29, 09:43:00,VALID,918.683,VALID,0,VALID,73.9972,VALID,493.904,VALID,24.1075,VALID,32,VALID,1.84785,
2008-09-29, 09:44:00,VALID,918.655,VALID,0,VALID,73.9285,VALID,489.642,VALID,23.9814,VALID,34,VALID,2.32676,
2008-09-29, 09:45:00,VALID,918.665,VALID,0,VALID,75.0552,VALID,484.939,VALID,23.9076,VALID,31,VALID,2.13027,
2008-09-29, 09:46:00,VALID,918.638,VALID,0,VALID,74.4664,VALID,482.154,VALID,23.8908,VALID,22,VALID,2.06818,
2008-09-29, 09:47:00,VALID,918.634,VALID,0,VALID,74.6267,VALID,477.246,VALID,23.9096,VALID,37,VALID,1.84527,
2008-09-29, 09:48:00,VALID,918.634,VALID,0,VALID,74.5783,VALID,477.433,VALID,24.0051,VALID,13,VALID,1.92631,
2008-09-29, 09:49:00,VALID,918.644,VALID,0,VALID,74.3367,VALID,476.975,VALID,24.1197,VALID,351,VALID,1.65394,
2008-09-29, 09:50:00,VALID,918.645,VALID,0,VALID,74.1358,VALID,477.246,VALID,24.1886,VALID,8,VALID,1.59226,
2008-09-29, 09:51:00,VALID,918.639,VALID,0,VALID,73.2546,VALID,486.025,VALID,24.2243,VALID,10,VALID,1.81603,
2008-09-29, 09:52:00,VALID,918.635,VALID,0,VALID,74.1727,VALID,497.657,VALID,24.2335,VALID,19,VALID,2.03773,
2008-09-29, 09:53:00,VALID,918.627,VALID,0,VALID,73.968,VALID,508.644,VALID,24.1466,VALID,17,VALID,1.35338,
2008-09-29, 09:54:00,VALID,918.644,VALID,0,VALID,74.7945,VALID,496.316,VALID,24.1369,VALID,17,VALID,0.747396,
2008-09-29, 09:55:00,VALID,918.641,VALID,0,VALID,73.5827,VALID,485.533,VALID,24.1918,VALID,22,VALID,0.727273,
2008-09-29, 09:56:00,VALID,918.646,VALID,0,VALID,72.9329,VALID,489.048,VALID,24.211,VALID,9,VALID,0.440549,
2008-09-29, 09:57:00,VALID,918.629,VALID,0,VALID,72.2233,VALID,487.995,VALID,24.2666,VALID,341,VALID,0.0285247,
2008-09-29, 09:58:00,VALID,918.613,VALID,0,VALID,73.1503,VALID,480.982,VALID,24.2601,VALID,29,VALID,0.710243,
2008-09-29, 09:59:00,VALID,918.598,VALID,0,VALID,73.8395,VALID,479.012,VALID,24.1983,VALID,5,VALID,0.239281,
2008-09-29, 10:00:00,VALID,918.59,VALID,0,VALID,74.9039,VALID,466.616,VALID,24.3452,VALID,20,VALID,1.07559,
2008-09-29, 10:01:00,VALID,918.572,VALID,0,VALID,75.9351,VALID,464.816,VALID,24.5691,VALID,31,VALID,0.730903,
2008-09-29, 10:02:00,VALID,918.564,VALID,0,VALID,74.8263,VALID,463.967,VALID,24.7996,VALID,354,VALID,0.762536,
2008-09-29, 10:03:00,VALID,918.54,VALID,0,VALID,73.3398,VALID,456.377,VALID,24.8581,VALID,15,VALID,1.64082,
2008-09-29, 10:04:00,VALID,918.525,VALID,0,VALID,73.2889,VALID,454.118,VALID,24.7499,VALID,28,VALID,1.3498,
2008-09-29, 10:05:00,VALID,918.52,VALID,0,VALID,71.8596,VALID,455.018,VALID,24.7948,VALID,26,VALID,1.41944,
2008-09-29, 10:06:00,VALID,918.506,VALID,0,VALID,74.2935,VALID,452.233,VALID,24.8692,VALID,28,VALID,1.5292,
2008-09-29, 10:07:00,VALID,918.485,VALID,0,VALID,72.2399,VALID,454.067,VALID,24.8724,VALID,36,VALID,1.54728,
2008-09-29, 10:08:00,VALID,918.474,VALID,0,VALID,73.5674,VALID,453.167,VALID,24.8468,VALID,13,VALID,0.929501,
2008-09-29, 10:09:00,VALID,918.447,VALID,0,VALID,73.6017,VALID,448.735,VALID,25.0031,VALID,326,VALID,0.830256,
2008-09-29, 10:10:00,VALID,918.427,VALID,0,VALID,73.425,VALID,448.005,VALID,25.0382,VALID,24,VALID,1.12734,
2008-09-29, 10:11:00,VALID,918.418,VALID,0,VALID,71.908,VALID,451.113,VALID,24.9439,VALID,27,VALID,1.32552,
2008-09-29, 10:12:00,VALID,918.422,VALID,0,VALID,74.806,VALID,458.33,VALID,24.9865,VALID,8,VALID,1.12426,
2008-09-29, 10:13:00,VALID,918.443,VALID,0,VALID,73.1491,VALID,459.722,VALID,25.1591,VALID,337,VALID,0.0397892,
2008-09-29, 10:14:00,VALID,918.436,VALID,0,VALID,69.2058,VALID,460.503,VALID,25.253,VALID,322,VALID,0.166903,
2008-09-29, 10:15:00,VALID,918.428,VALID,0,VALID,69.4182,VALID,458.788,VALID,25.4097,VALID,12,VALID,0,
2008-09-29, 10:16:00,VALID,918.434,VALID,0,VALID,69.8263,VALID,454.237,VALID,25.5648,VALID,348,VALID,0.0959302,
2008-09-29, 10:17:00,VALID,918.432,VALID,0,VALID,67.5082,VALID,422.16,VALID,25.6239,VALID,182,VALID,0,
2008-09-29, 10:18:00,VALID,918.44,VALID,0,VALID,68.3513,VALID,440.245,VALID,25.6753,VALID,51,VALID,0.00136719,
2008-09-29, 10:19:00,VALID,918.433,VALID,0,VALID,66.5049,VALID,445.696,VALID,25.7706,VALID,247,VALID,0.23165,
2008-09-29, 10:20:00,VALID,918.417,VALID,0,VALID,67.5654,VALID,439.022,VALID,25.8125,VALID,280,VALID,0.162919,
2008-09-29, 10:21:00,VALID,918.42,VALID,0,VALID,67.9126,VALID,445.356,VALID,25.8515,VALID,328,VALID,0.413881,
2008-09-29, 10:22:00,VALID,918.398,VALID,0,VALID,68.5725,VALID,452.505,VALID,25.8024,VALID,12,VALID,0.556734,
2008-09-29, 10:23:00,VALID,918.393,VALID,0,VALID,69.1804,VALID,454.271,VALID,25.7738,VALID,360,VALID,0.652158,
2008-09-29, 10:24:00,VALID,918.406,VALID,0,VALID,69.4016,VALID,446.205,VALID,25.7933,VALID,6,VALID,0.137305,
2008-09-29, 10:25:00,VALID,918.404,VALID,0,VALID,68.7073,VALID,450.994,VALID,25.8577,VALID,337,VALID,0.222929,
2008-09-29, 10:26:00,VALID,918.389,VALID,0,VALID,68.1033,VALID,453.558,VALID,25.9624,VALID,296,VALID,0.241642,
2008-09-29, 10:27:00,VALID,918.393,VALID,0,VALID,67.7511,VALID,467.567,VALID,26.0502,VALID,298,VALID,0,
2008-09-29, 10:28:00,VALID,918.39,VALID,0,VALID,67.4179,VALID,468.943,VALID,26.096,VALID,299,VALID,0.259115,
2008-09-29, 10:29:00,VALID,918.385,VALID,0,VALID,67.4675,VALID,456.479,VALID,26.0671,VALID,284,VALID,0.0659299,
2008-09-29, 10:30:00,VALID,918.393,VALID,0,VALID,67.7765,VALID,454.849,VALID,26.0407,VALID,314,VALID,0,
2008-09-29, 10:31:00,VALID,918.407,VALID,0,VALID,68.3373,VALID,456.852,VALID,26.07,VALID,335,VALID,0.127131,
2008-09-29, 10:32:00,VALID,918.414,VALID,0,VALID,67.3823,VALID,452.93,VALID,26.1058,VALID,263,VALID,0.366024,
2008-09-29, 10:33:00,VALID,918.43,VALID,0,VALID,66.7542,VALID,455.969,VALID,26.044,VALID,297,VALID,0,
2008-09-29, 10:34:00,VALID,918.432,VALID,0,VALID,66.7592,VALID,451.215,VALID,26.0404,VALID,243,VALID,0,
2008-09-29, 10:35:00,VALID,918.429,VALID,0,VALID,67.9189,VALID,464.392,VALID,26.0798,VALID,245,VALID,0,